Theta_e
299 298 298 299 298 298 298 298 298 296 298 298 296 296 299 299 290 287 296 299 297 296 297 298 298 299 299 299 299 300 301 301 302 303 303 303 303 305 305 305 305 305 304 305 305 305 306 307 308 311 312 313 314 315 317 321 323 324 325 324 325 324 326 326 327 326 325 327 327 329 330 328 328 328 327 328 327 327 327 326 326 326 326 324 326 326 323
298 298 298 299 298 297 297 296 297 297 295 297 297 298 299 297 296 299 299 297 294 295 296 297 298 300 300 299 300 300 298 298 299 299 299 300 301 301 302 302 303 303 303 304 304 304 305 305 307 308 309 310 310 311 313 316 320 324 325 325 325 325 325 326 326 327 327 326 326 327 326 326 327 327 327 327 327 325 323 323 326 324 324 324 324 327 321
295 297 298 297 298 297 293 294 295 296 297 297 297 297 297 299 299 298 298 295 292 295 298 298 299 299 299 298 296 296 296 297 297 297 297 298 298 299 300 301 301 302 302 302 303 303 303 304 305 306 307 308 309 310 311 313 315 320 324 324 324 325 325 325 325 326 327 326 325 324 325 326 326 325 326 326 325 324 322 322 324 324 324 324 324 323 321
290 296 296 296 295 295 292 290 291 293 293 293 293 292 296 294 294 298 298 294 291 295 298 297 296 295 294 293 294 295 295 295 295 295 295 295 296 297 298 299 300 300 300 300 301 302 303 304 305 305 306 307 307 308 309 310 312 315 317 320 323 323 323 324 324 325 326 326 324 324 326 323 324 325 325 325 325 325 324 324 324 325 323 322 321 320 318
289 295 296 295 294 293 288 285 289 292 294 296 296 296 296 296 297 293 290 291 295 296 297 293 292 292 292 292 292 293 294 294 294 293 294 294 295 296 296 297 298 299 299 299 300 301 302 304 304 305 306 306 305 307 307 309 309 310 311 313 317 320 322 323 323 324 323 322 321 321 320 321 323 323 323 323 323 323 323 324 324 322 318 317 317 317 315
289 294 295 295 288 282 282 290 294 294 291 293 291 290 292 295 297 294 294 292 293 292 291 290 289 290 290 291 293 294 294 293 293 293 294 294 294 295 296 296 297 298 299 299 299 300 301 304 306 306 306 306 306 307 307 307 307 306 307 308 309 311 315 318 322 322 320 319 318 317 317 317 318 319 319 320 321 321 321 321 320 317 314 312 311 309 308
287 292 292 286 281 282 288 295 295 296 296 296 293 292 293 294 296 296 294 293 291 291 291 290 289 290 292 293 293 293 295 295 293 293 293 294 294 294 294 295 296 297 298 298 299 299 299 301 303 304 305 305 306 306 306 306 305 305 304 304 305 306 308 311 315 317 316 316 314 314 314 314 314 314 315 316 317 318 318 317 317 314 311 309 307 306 305
292 289 288 280 279 288 293 293 295 296 297 294 295 290 292 293 294 295 292 293 292 292 291 292 292 292 292 293 293 294 294 295 294 293 293 294 294 293 294 295 295 296 297 298 298 298 299 299 300 302 302 304 303 304 305 304 304 304 303 303 302 303 304 306 309 312 313 313 313 313 312 312 312 311 311 311 312 314 314 314 314 314 312 310 307 305 304
286 286 286 284 289 288 289 289 291 291 288 289 288 285 287 293 293 295 293 293 293 293 293 293 293 293 293 289 290 293 294 294 295 294 294 295 295 295 296 296 296 297 297 298 298 299 298 298 299 300 301 301 301 301 302 303 303 303 303 302 302 302 302 303 304 306 309 310 310 310 311 311 311 310 309 310 311 313 311 311 311 311 311 310 308 305 303
291 285 282 282 283 280 283 290 294 297 296 295 294 291 287 293 294 295 294 292 292 292 293 293 294 294 294 286 286 291 293 295 294 295 295 295 296 296 296 296 297 297 297 298 298 299 298 298 299 299 300 301 300 299 299 299 299 300 301 302 303 303 303 303 303 304 304 305 306 307 307 306 306 307 309 311 312 313 311 310 309 310 311 310 309 307 305
288 286 283 282 280 280 287 289 294 296 298 297 295 290 284 291 294 295 294 293 293 293 294 294 295 294 288 284 286 291 293 294 294 294 295 295 295 296 296 296 295 296 296 297 297 298 297 296 297 298 299 300 299 298 299 298 298 298 299 301 302 303 303 304 304 303 303 303 303 304 304 305 305 305 305 306 308 309 309 308 308 308 308 307 307 308 308
287 286 283 280 283 281 287 292 294 296 298 298 292 283 281 290 293 296 295 294 294 295 295 295 292 291 286 285 288 293 294 294 295 294 294 294 294 294 296 297 297 297 297 296 295 295 296 296 297 298 298 298 298 297 298 298 297 297 298 299 302 303 304 304 305 304 304 303 302 302 302 303 305 305 305 305 305 306 306 306 306 306 306 304 303 303 303
285 284 282 284 284 288 292 293 296 296 298 294 285 280 284 292 294 297 296 295 296 296 294 293 288 290 291 291 293 294 295 294 294 295 295 295 295 294 295 296 297 296 296 295 294 295 296 297 298 298 298 298 297 297 297 297 296 298 299 300 302 302 303 303 303 304 305 305 304 303 303 303 304 304 305 305 305 304 304 304 304 304 304 304 303 303 303
285 286 283 282 283 288 294 295 297 296 292 283 282 288 295 295 296 296 296 295 296 295 293 291 291 292 293 294 294 293 293 293 293 293 294 294 295 297 297 297 296 296 296 296 296 296 297 297 298 298 297 296 296 296 296 295 296 298 299 300 300 301 301 302 302 303 304 304 305 305 305 303 303 303 303 303 304 305 303 304 304 303 303 304 304 304 304
287 286 283 282 278 287 295 295 294 294 286 285 291 293 296 297 296 295 295 295 294 294 292 292 292 292 292 292 293 293 293 292 292 293 294 293 293 294 295 295 296 295 295 295 295 296 297 297 297 298 297 296 296 296 295 296 298 298 299 299 300 301 301 301 302 302 302 303 303 304 304 305 305 304 304 303 303 303 303 304 304 304 304 304 303 303 303
283 281 279 278 285 291 295 293 285 290 291 294 294 294 293 296 296 295 294 294 294 294 293 291 291 292 291 292 292 292 293 294 294 293 293 294 295 295 295 295 295 295 295 295 295 296 297 297 297 297 297 295 295 295 296 298 298 298 299 300 299 300 300 302 302 302 302 303 304 304 304 304 304 305 306 305 307 307 304 303 303 304 303 305 304 304 303
285 282 284 290 293 294 295 295 293 293 295 295 295 294 293 293 294 296 294 293 294 294 294 292 292 291 291 291 293 292 292 293 293 293 293 294 295 295 294 294 295 295 294 294 295 296 296 297 297 297 297 295 295 295 297 298 298 298 298 299 299 298 298 299 300 301 302 302 303 303 304 305 304 303 305 307 304 308 306 305 306 305 305 306 306 305 305
292 293 293 294 294 294 294 296 296 295 294 295 295 294 292 293 294 296 295 294 294 294 294 292 291 291 292 292 292 292 293 293 293 293 293 293 294 294 294 294 294 294 295 295 295 295 297 298 298 298 298 297 295 296 298 298 299 299 298 298 297 298 298 299 299 301 301 301 302 303 303 303 303 303 302 302 301 302 303 304 305 303 303 303 302 303 304
288 283 294 292 293 294 295 294 295 296 296 295 295 293 293 294 295 295 296 296 295 294 294 292 291 291 292 292 292 293 293 292 293 293 293 293 294 294 293 294 295 295 295 294 294 295 295 297 298 300 300 300 300 300 299 300 300 300 299 299 298 298 298 298 299 299 299 298 298 298 298 300 302 302 302 299 298 297 298 298 301 301 301 300 301 301 302
286 286 291 293 295 295 296 295 294 293 294 295 295 295 295 295 296 296 296 296 295 295 294 294 293 293 293 292 293 293 293 293 293 293 293 294 294 295 296 296 296 295 295 296 297 297 295 296 298 300 301 301 302 301 301 302 302 301 300 299 300 300 299 299 299 299 299 293 295 296 296 296 297 298 299 298 295 294 294 294 296 297 298 297 297 299 300
290 292 292 293 294 294 294 295 296 296 296 295 295 295 295 295 295 295 296 297 297 297 295 295 295 294 295 294 294 293 294 294 294 294 294 295 295 296 296 296 296 295 295 295 296 297 297 299 300 300 301 301 304 303 302 303 301 301 300 299 298 299 299 300 299 298 300 300 298 297 295 294 294 293 294 297 294 293 293 293 293 294 296 295 295 298 298
286 286 289 293 286 286 291 294 295 296 297 297 296 296 295 295 295 295 295 295 296 296 296 295 295 294 294 295 296 295 295 294 294 295 295 296 295 295 297 298 299 298 297 297 297 295 296 298 297 297 298 299 300 301 300 301 302 301 300 300 300 298 297 297 297 298 301 301 300 298 296 295 294 294 289 289 293 294 291 289 288 289 290 291 292 295 297
286 291 292 293 293 292 292 294 297 298 297 297 295 295 295 295 296 296 295 294 295 295 295 296 295 294 294 295 296 296 296 297 297 296 295 295 295 296 296 295 296 297 298 297 297 297 297 297 297 298 298 298 298 299 299 300 299 299 298 299 300 298 297 296 295 299 299 300 302 302 301 299 297 293 293 293 288 288 290 289 289 288 288 288 288 288 293
293 295 294 295 294 291 293 296 296 296 297 296 296 296 297 296 296 296 296 296 294 294 295 296 297 295 295 295 295 294 294 295 295 296 296 297 296 297 298 298 297 296 296 298 297 296 297 298 299 299 298 298 298 299 299 299 299 298 298 296 295 296 299 298 298 297 300 300 302 303 302 302 300 296 295 293 292 289 288 288 288 288 288 288 288 288 288
292 296 296 296 295 295 297 297 298 298 299 298 296 295 296 296 296 297 296 296 297 296 295 295 295 295 294 294 294 293 293 293 295 294 295 296 296 296 297 297 297 296 297 297 298 298 299 298 298 298 297 298 299 299 299 299 299 299 297 297 297 297 298 297 299 298 298 299 301 300 301 300 302 300 297 295 293 292 290 288 288 288 288 288 288 288 288
297 296 297 297 296 296 296 295 295 296 297 298 297 296 297 297 296 296 296 296 295 295 294 294 294 294 295 294 293 293 293 293 292 293 294 296 296 296 296 296 297 298 298 298 298 298 299 299 298 300 298 298 299 300 300 299 299 300 299 298 298 297 296 296 298 302 302 300 299 302 301 300 300 298 298 301 298 296 293 292 291 290 289 288 289 288 288
297 298 296 295 294 294 296 294 292 296 297 297 297 297 297 297 297 297 297 297 296 296 295 295 295 295 295 295 294 294 293 293 294 294 294 295 295 296 297 298 298 298 297 297 297 296 296 296 297 300 299 299 299 300 300 300 301 299 302 300 298 294 290 294 298 298 298 298 298 297 299 300 301 300 300 301 301 298 297 294 294 293 292 292 289 288 290
297 297 297 292 291 292 294 295 296 296 296 296 296 296 296 297 296 296 296 295 295 296 296 296 296 295 294 295 294 293 293 294 294 294 294 294 296 297 298 298 298 298 297 297 297 297 297 297 297 298 299 300 300 300 300 299 300 300 299 300 298 302 300 300 299 298 298 298 297 297 298 297 298 298 300 298 298 300 298 297 297 295 294 294 293 290 290
296 297 297 296 296 296 296 296 296 296 295 296 297 297 297 296 295 295 295 295 295 295 295 295 296 295 295 295 295 294 294 294 293 293 294 295 296 297 298 298 298 298 297 297 297 297 297 298 298 298 301 303 300 300 300 300 300 299 298 298 297 296 296 296 298 299 301 298 298 297 293 293 295 298 300 300 297 296 295 296 296 297 295 295 294 294 292
296 297 296 296 296 296 295 294 294 295 295 296 295 295 296 295 294 294 294 295 295 295 295 295 295 295 295 295 294 293 293 293 293 293 294 295 295 296 297 297 297 297 297 297 296 297 297 297 297 297 299 301 301 302 300 301 300 299 301 300 298 296 296 296 299 299 299 298 296 292 293 296 299 298 297 298 297 294 293 292 293 293 296 295 293 294 294
296 296 297 297 296 296 295 294 295 295 295 295 295 295 295 295 295 294 295 295 295 295 295 295 295 295 295 294 294 294 294 293 293 293 294 294 294 294 294 294 293 292 293 294 296 296 296 296 297 297 299 302 302 300 301 302 300 299 301 297 297 291 289 290 292 297 296 296 295 296 296 296 295 294 292 293 294 295 295 294 293 294 294 295 294 293 294
294 295 295 295 295 294 294 295 295 294 295 295 295 294 294 294 295 295 294 294 295 295 295 295 295 295 294 295 294 293 292 291 292 292 292 292 293 291 286 290 292 291 293 294 295 295 296 295 295 297 298 300 302 300 301 300 300 299 298 295 295 296 293 290 296 295 295 293 295 296 296 296 295 296 296 296 294 294 294 293 292 293 294 293 293 293 294
292 291 291 292 293 293 293 294 294 294 295 294 295 295 296 296 296 295 296 295 295 296 296 295 295 295 295 294 292 292 289 291 292 290 289 290 288 286 286 292 293 293 293 294 294 294 294 293 294 296 296 298 303 302 303 304 302 299 299 298 298 296 293 293 292 298 295 294 296 294 295 294 295 296 294 293 294 293 293 292 292 291 292 293 292 294 294
295 294 294 295 295 293 293 293 295 295 295 295 296 296 297 296 296 296 296 296 296 296 295 296 296 294 292 288 286 286 286 288 290 290 288 287 286 286 290 294 294 294 295 295 295 294 296 295 295 296 297 297 297 299 300 300 302 300 300 299 299 296 296 296 294 295 296 295 293 292 294 295 296 294 292 293 293 293 292 291 291 291 292 293 293 294 292
296 296 297 296 296 296 296 295 295 295 295 294 295 295 296 296 296 296 296 296 295 296 297 296 294 291 288 287 287 286 286 287 287 285 286 287 288 288 292 292 293 293 293 293 294 295 297 297 296 295 297 297 298 299 301 300 301 300 300 300 298 297 297 299 297 296 295 297 295 295 295 295 294 292 292 294 295 292 293 292 292 292 292 292 294 294 294
295 295 296 296 296 296 296 296 296 296 296 295 295 294 295 296 296 297 296 296 297 298 296 294 293 293 288 287 287 286 286 287 286 286 286 286 287 288 291 292 292 292 292 292 295 296 297 297 291 290 298 296 295 295 297 300 300 302 302 299 297 297 298 297 296 296 295 296 295 294 294 292 292 292 294 294 295 296 294 294 291 292 292 292 292 293 292
297 297 296 296 296 297 296 296 296 296 296 296 296 296 296 296 296 297 298 297 298 298 297 296 295 293 290 288 289 287 287 287 289 290 290 290 290 290 291 292 292 292 291 291 294 297 297 295 289 288 294 295 296 296 297 292 301 300 301 299 298 297 298 298 299 295 295 296 293 293 293 292 296 296 293 295 296 294 293 294 291 293 293 293 292 292 292
297 297 296 296 296 296 296 296 296 297 296 296 296 296 296 297 297 297 298 297 297 297 298 298 297 296 295 294 290 289 288 287 287 287 287 287 290 290 290 290 290 291 291 292 295 296 298 293 286 292 296 296 296 297 296 290 294 298 299 299 298 297 296 297 297 298 296 295 292 295 294 294 295 295 296 297 296 295 293 294 293 294 292 293 292 292 292
294 296 296 295 296 296 296 297 297 296 295 296 296 296 297 298 297 297 297 297 298 298 297 297 297 296 296 295 293 293 293 292 288 287 287 288 290 290 290 292 293 294 294 297 297 296 298 296 296 295 295 297 298 298 295 287 292 298 298 299 299 297 297 298 297 295 294 298 295 294 294 294 295 295 294 295 296 293 291 293 294 292 293 293 292 292 292
295 296 296 296 296 295 296 296 296 297 297 297 296 296 297 296 297 297 297 297 298 297 297 297 296 295 295 295 295 295 296 296 296 293 290 291 291 291 293 294 296 297 296 292 297 297 293 289 294 297 297 298 298 299 297 293 294 297 298 298 298 297 297 298 299 296 297 294 294 291 293 293 294 295 293 293 294 293 293 294 294 293 293 294 294 294 293
296 296 295 296 295 294 296 296 296 297 296 297 297 298 298 298 298 297 296 296 299 298 297 297 296 295 295 295 296 296 297 297 297 297 296 295 293 293 292 293 297 299 297 297 298 294 295 294 295 296 297 298 298 295 297 293 297 298 298 297 297 297 297 296 296 296 296 293 293 294 294 294 293 293 292 293 294 295 293 293 293 294 294 295 295 295 294
296 296 296 296 296 296 296 296 296 296 297 297 296 297 298 298 298 297 297 297 298 298 298 298 295 297 297 296 296 296 296 296 297 297 297 296 294 294 292 295 298 295 292 291 292 292 295 295 294 293 297 297 297 291 292 295 298 298 297 297 297 297 296 296 297 296 296 297 297 295 294 294 294 293 292 293 293 293 293 294 294 295 295 296 296 296 295
295 296 296 296 296 296 296 296 295 296 296 296 297 297 298 299 299 298 298 298 297 297 297 297 297 294 296 296 296 295 296 297 296 296 297 297 298 299 297 297 299 294 288 293 297 295 294 296 297 297 293 295 295 288 288 297 298 298 299 300 297 296 296 297 296 296 297 297 297 297 296 294 294 294 292 293 293 294 294 294 294 294 295 296 295 296 295
295 296 296 296 296 296 296 296 296 296 295 296 298 298 298 298 298 298 297 297 297 297 297 296 297 297 297 297 296 295 295 296 296 297 295 296 298 298 299 299 296 292 287 294 295 294 294 296 297 292 286 287 287 289 295 297 297 298 298 299 298 297 296 296 296 295 296 295 295 296 296 295 293 294 293 293 292 293 292 293 294 294 294 295 296 295 295
296 296 296 296 296 295 294 295 296 295 296 297 297 297 298 297 297 298 298 298 297 297 296 296 296 297 297 297 297 297 297 297 297 297 295 295 294 295 299 294 294 293 292 291 295 295 296 296 292 287 288 287 287 289 295 296 297 297 298 296 296 294 295 295 295 295 295 295 296 295 295 294 295 294 294 293 292 292 292 292 293 295 293 294 294 294 293
295 295 296 291 293 295 296 297 297 297 297 296 296 296 297 297 297 298 298 298 298 298 299 298 298 298 298 297 297 297 298 298 299 298 298 297 296 297 299 294 296 292 289 289 295 296 297 287 286 287 286 286 287 292 295 295 296 296 297 296 292 291 295 294 293 293 295 295 295 295 296 296 295 295 296 295 294 291 293 291 292 293 294 294 294 293 294
296 296 296 296 296 297 297 297 298 297 296 295 294 295 296 297 298 298 299 299 298 298 298 299 298 299 299 299 298 298 297 297 297 299 298 298 299 297 295 292 290 287 290 294 295 296 295 291 288 286 286 286 287 295 296 296 296 296 296 298 295 295 294 293 294 293 292 294 294 292 291 292 296 297 296 293 294 293 292 291 292 293 294 292 293 291 291
296 295 296 296 295 296 295 296 296 296 295 294 296 297 296 297 298 298 299 298 298 298 298 299 298 299 300 300 299 299 299 298 294 295 298 299 299 299 299 300 296 291 291 290 290 289 288 289 286 286 286 286 289 295 295 295 295 295 295 295 294 294 294 293 293 292 291 291 292 294 294 295 296 295 293 295 293 294 294 292 292 291 292 293 292 291 293
296 296 296 296 296 295 295 295 293 293 295 295 295 296 297 297 297 297 298 298 298 297 298 299 298 298 298 298 299 298 298 298 297 295 299 300 300 299 298 294 288 287 291 295 299 297 288 286 286 286 285 286 293 294 294 294 294 295 294 293 293 293 293 293 293 292 291 291 291 292 293 292 294 293 292 291 291 293 293 293 292 292 291 291 292 292 291
297 296 294 295 295 295 295 295 295 295 296 295 295 296 297 297 295 296 296 296 297 296 297 297 297 298 298 298 299 299 301 300 299 299 299 298 299 299 298 298 296 291 291 295 296 297 288 285 286 286 287 291 293 293 294 293 294 294 295 293 292 293 291 290 290 290 291 291 292 291 292 292 292 292 291 291 292 291 292 292 291 291 290 290 292 291 291
296 294 295 295 295 296 296 295 295 295 295 295 296 296 296 295 295 295 296 296 296 295 295 295 296 297 297 298 298 298 298 298 298 295 297 297 298 295 294 296 296 293 295 295 296 296 294 291 292 289 289 292 293 294 292 293 292 293 291 293 294 292 292 292 291 292 293 292 291 293 294 294 293 294 292 292 291 291 291 291 292 291 291 291 291 291 291
297 297 296 296 296 296 296 296 297 295 296 296 296 296 295 295 295 296 296 292 295 295 295 295 294 296 297 297 296 297 298 297 296 297 295 296 298 297 295 292 295 295 297 298 297 299 297 294 291 288 289 292 292 292 290 289 291 291 292 291 292 296 292 292 291 291 292 292 292 294 293 294 294 293 291 291 291 292 290 291 291 291 291 291 291 291 291
Wind_Speed
5 4 6 7 7 8 10 13 13 15 14 15 11 9 9 6 2 5 8 7 10 8 7 7 8 7 7 8 9 8 8 8 9 9 10 11 12 13 14 14 14 14 14 12 12 12 12 13 13 13 12 11 11 10 7 7 6 3 1 6 5 5 4 8 7 6 6 3 2 4 3 7 6 7 7 5 6 6 5 5 4 3 3 4 2 1 3
5 6 8 14 11 5 12 15 15 13 10 6 7 11 9 8 5 8 10 13 12 7 6 7 7 7 8 8 8 8 10 10 10 10 11 12 13 14 14 14 14 14 14 13 13 13 13 14 13 12 12 11 10 9 8 7 7 4 2 1 1 5 5 6 8 7 6 4 3 4 2 3 6 7 6 5 5 6 5 4 3 4 3 4 3 1 10
3 2 6 5 8 9 13 15 15 13 8 8 10 11 11 2 6 7 9 10 7 5 7 9 9 8 8 9 11 11 10 11 11 11 12 12 13 14 14 14 14 14 14 14 14 14 14 13 13 11 11 10 10 11 9 7 8 7 5 1 3 5 6 6 6 6 5 5 7 4 3 0 5 6 6 5 5 6 5 4 4 4 5 8 9 11 10
2 3 4 1 5 11 15 17 16 14 12 9 7 7 6 7 7 1 6 4 4 5 7 9 10 10 11 12 11 10 10 11 12 12 12 13 13 13 13 13 14 14 14 14 14 14 15 14 14 13 11 10 10 9 8 9 10 8 9 8 6 6 6 6 6 4 3 4 4 3 1 8 7 7 5 5 4 4 5 5 7 11 10 9 8 8 8
2 3 0 0 1 3 3 10 10 9 9 8 9 10 12 11 9 5 2 6 5 5 6 8 10 10 11 11 11 10 10 11 11 12 12 12 12 12 13 13 14 14 14 13 12 11 10 10 12 12 11 10 11 9 9 9 11 12 11 11 10 9 7 6 4 5 7 9 8 7 5 6 5 8 10 9 8 9 9 8 10 11 10 9 8 8 8
1 1 2 2 4 4 3 2 5 6 6 8 10 9 10 13 9 6 8 9 9 9 10 9 9 11 11 10 10 10 9 9 10 11 11 11 11 11 12 12 13 13 12 11 11 11 10 9 8 10 12 11 9 8 9 11 13 12 12 12 11 11 11 9 8 9 8 9 9 7 7 10 10 10 10 9 8 7 8 9 10 10 10 10 9 9 8
2 2 5 1 4 3 3 2 7 6 3 8 13 11 11 11 10 9 9 9 9 9 8 9 9 8 10 11 12 12 12 11 9 10 11 11 11 12 12 12 13 13 13 12 11 12 12 12 10 10 10 11 9 11 11 11 11 12 12 13 13 11 12 11 10 9 9 9 10 10 9 11 11 11 11 8 9 8 8 8 8 8 8 9 8 9 8
1 0 2 3 4 3 5 5 10 9 4 9 5 11 11 11 11 7 9 8 8 8 8 8 8 9 11 12 12 11 11 11 9 9 9 10 11 12 12 12 12 12 12 11 11 11 11 12 12 12 11 9 10 10 11 12 11 11 12 13 13 12 12 12 11 10 9 10 9 7 9 9 11 10 11 9 8 9 9 8 7 8 8 8 8 10 9
1 2 3 6 10 7 11 4 8 8 4 5 4 4 6 10 9 8 7 7 7 7 6 7 6 8 9 11 10 11 10 9 9 10 10 10 11 10 10 10 11 10 11 11 11 11 12 13 13 13 12 11 11 11 12 11 12 12 13 13 13 12 12 11 12 10 10 10 9 9 9 10 10 9 9 9 7 6 9 8 8 8 8 8 8 8 9
1 5 6 3 4 3 5 7 6 4 5 1 1 1 4 8 9 8 6 6 5 5 5 4 5 5 3 8 7 9 10 10 10 10 11 11 11 11 11 11 11 11 11 12 12 12 13 14 14 12 12 11 11 13 13 12 13 13 14 12 11 11 11 10 10 10 9 9 10 9 10 11 10 8 7 6 6 5 7 7 8 7 7 8 8 8 7
3 2 4 1 3 4 4 9 9 6 4 2 1 2 4 5 9 6 5 5 4 5 4 4 4 3 3 4 5 6 9 10 10 10 11 11 11 11 12 12 12 12 11 12 13 14 14 15 14 13 13 12 11 12 12 12 13 13 13 11 11 10 8 8 9 9 8 9 9 9 10 10 9 9 8 8 6 7 7 7 6 5 7 7 7 6 6
1 3 4 4 4 4 8 9 7 6 2 1 2 3 3 5 9 5 4 4 5 6 7 5 8 7 5 5 5 6 8 9 9 11 11 12 12 12 12 11 10 11 12 15 16 16 16 15 13 13 12 12 12 11 11 11 12 12 11 10 8 8 8 8 7 7 8 9 9 9 9 9 8 8 6 7 8 7 6 5 6 6 7 7 7 6 6
6 7 6 5 4 2 9 10 6 7 5 2 1 4 2 4 7 3 5 7 7 8 7 6 7 8 9 9 8 8 8 10 11 9 9 10 10 11 12 12 10 11 12 12 13 15 13 14 13 12 10 10 12 11 11 12 13 11 9 8 8 8 7 7 8 8 6 7 8 8 7 7 7 7 6 6 5 7 7 6 7 7 7 6 6 6 5
3 4 7 6 4 3 11 11 5 9 3 2 4 2 4 7 1 5 6 9 9 9 10 8 8 9 10 10 9 9 9 10 10 10 9 9 9 9 9 10 11 10 11 12 13 13 13 14 13 11 11 12 11 11 12 14 12 10 10 10 9 8 7 8 8 7 7 7 7 7 6 8 7 6 5 6 5 6 5 5 6 7 6 5 5 5 4
1 2 6 4 4 6 14 11 2 12 3 3 1 3 4 9 9 10 10 9 9 11 12 11 11 9 9 10 9 9 9 9 9 9 8 9 9 9 9 10 11 10 11 12 12 12 11 11 11 10 12 13 12 11 14 13 10 10 10 10 9 9 8 7 6 7 7 6 6 5 6 5 6 5 4 7 4 3 4 4 4 4 4 4 4 4 5
3 5 5 4 3 5 10 10 6 6 6 4 5 3 5 7 7 8 8 9 10 11 12 11 11 11 11 10 10 9 8 7 7 8 8 8 7 8 8 9 9 10 10 10 11 11 10 10 10 11 12 12 12 13 12 9 9 9 9 8 9 9 8 6 7 7 7 6 5 4 4 5 4 3 2 3 2 1 4 5 4 4 4 5 5 5 5
4 5 5 5 6 7 8 9 8 8 8 7 8 8 8 7 7 7 8 10 10 11 12 12 11 10 10 10 9 9 8 6 6 7 7 8 7 7 7 8 8 9 10 10 10 10 10 11 10 10 10 11 12 12 9 8 9 9 9 9 8 8 9 9 7 6 5 5 5 5 5 3 3 3 3 2 4 0 3 4 2 2 2 2 2 3 3
16 13 10 8 9 10 10 9 8 8 9 8 8 9 8 8 8 7 7 8 10 10 10 11 11 10 9 9 9 9 8 7 7 7 8 8 7 7 8 8 9 9 9 9 9 9 9 8 7 7 7 9 10 8 7 8 8 7 6 7 7 6 6 6 8 8 7 7 8 6 4 5 5 5 6 8 8 7 5 3 3 4 3 2 3 2 3
6 7 7 11 11 10 11 11 11 10 9 9 9 9 8 7 7 9 9 9 8 8 8 9 11 11 9 9 9 8 8 8 8 7 8 7 8 8 9 9 8 8 8 7 7 7 7 6 4 3 3 2 2 2 4 5 5 7 6 5 4 5 5 4 5 7 8 7 7 9 9 8 7 8 8 8 8 8 7 7 8 7 7 8 7 6 5
10 10 12 13 13 12 11 9 9 10 10 10 10 9 10 10 9 9 8 9 10 8 9 8 8 8 7 8 7 7 7 7 7 6 6 6 6 7 7 7 8 8 7 7 6 5 4 3 2 2 2 1 1 0 0 1 1 3 4 5 7 6 5 4 4 3 4 7 8 7 8 8 7 7 8 8 7 7 6 6 6 6 7 7 7 7 6
13 14 13 14 14 13 12 12 11 9 9 10 10 10 11 11 12 11 11 10 10 9 10 10 10 10 8 5 6 8 7 6 6 6 5 5 5 4 6 6 6 6 5 6 5 5 4 2 1 2 4 4 1 2 2 1 0 1 2 4 6 8 8 6 5 3 2 4 5 6 7 8 6 5 4 5 7 6 5 4 4 4 5 5 5 5 6
8 8 7 6 7 8 9 10 11 12 12 12 12 11 11 11 11 10 11 10 10 10 10 9 9 10 9 10 8 8 6 6 5 5 4 4 5 5 4 4 4 4 3 1 2 3 3 2 4 6 5 4 3 3 3 3 2 2 0 2 3 4 3 4 6 4 2 1 5 8 7 5 5 6 9 12 7 6 3 4 10 11 8 5 3 3 6
9 11 13 12 13 11 10 10 11 11 12 12 11 11 11 10 10 10 10 10 10 10 9 9 10 10 9 9 8 7 6 6 5 4 2 3 4 4 5 4 5 4 4 7 5 1 3 2 3 2 2 3 5 8 6 5 6 6 8 4 3 3 3 4 6 3 3 4 2 2 7 8 6 5 5 8 13 13 10 6 7 9 10 10 11 10 6
15 12 10 10 10 11 10 10 9 10 9 11 12 11 10 10 10 9 9 8 9 8 8 8 8 8 8 7 7 7 7 7 8 7 8 6 6 5 3 4 4 6 4 2 2 4 7 3 1 3 4 2 5 3 5 6 4 5 5 5 6 5 2 2 3 5 3 3 2 2 2 3 8 6 6 6 5 6 7 7 6 6 6 7 8 10 10
12 12 12 12 13 12 11 11 10 9 9 10 10 10 10 10 10 10 9 8 8 8 7 7 7 6 7 5 4 4 4 5 4 5 6 7 9 1 5 5 3 3 2 2 2 1 2 3 3 4 6 6 4 3 4 4 4 4 5 4 3 3 3 4 5 2 2 3 3 3 3 3 2 6 7 5 6 4 3 4 5 6 6 6 5 6 9
12 12 12 12 11 11 9 9 11 11 11 10 10 9 10 10 10 9 9 9 8 8 8 6 6 5 5 5 3 3 3 2 4 4 4 5 5 7 8 7 4 2 3 4 4 3 1 2 2 1 3 3 2 3 6 5 6 3 5 4 3 3 4 6 4 1 2 3 4 1 3 2 2 3 4 1 6 6 6 5 4 4 3 2 3 4 5
12 11 11 11 10 9 8 8 9 9 10 10 10 10 10 9 8 9 8 7 6 6 7 6 4 3 3 4 4 4 5 6 5 1 2 3 4 4 4 5 6 5 4 5 3 3 2 4 4 1 2 2 3 4 4 4 2 5 0 5 3 0 4 4 6 6 5 6 6 7 8 3 1 2 2 1 1 4 6 7 7 5 4 3 4 5 3
9 7 6 7 8 8 9 10 9 8 8 8 8 11 11 8 8 8 7 6 6 6 4 3 2 3 1 6 8 5 7 3 6 5 2 1 2 3 3 3 3 4 4 4 4 2 3 3 3 3 2 2 3 3 4 3 5 4 6 3 4 1 1 3 5 5 4 3 2 4 3 6 6 2 1 3 1 1 1 5 6 7 5 5 4 4 6
7 7 8 9 9 9 8 7 7 7 8 8 8 7 7 5 6 5 6 6 5 4 4 3 3 5 4 5 2 2 4 4 4 5 3 3 2 2 1 1 2 3 4 4 5 4 3 3 3 3 1 1 2 2 3 4 5 4 3 4 4 5 5 5 4 3 2 3 2 3 4 4 4 5 1 0 2 6 7 4 4 5 7 6 5 2 3
8 8 8 8 8 8 8 7 7 6 6 6 8 6 5 6 5 5 4 4 4 3 3 3 2 3 4 2 6 7 8 9 8 7 6 3 4 4 4 5 4 3 3 4 6 6 6 5 4 4 3 2 2 1 2 1 4 4 2 3 6 5 3 2 1 2 5 2 3 6 6 4 2 5 4 3 4 5 4 2 2 3 7 6 4 4 5
9 8 9 7 7 6 5 6 5 5 5 5 5 5 6 4 3 3 4 4 2 2 2 3 3 2 3 7 8 7 6 6 6 4 4 9 7 6 5 4 3 3 3 3 3 3 3 4 3 4 3 1 1 2 2 2 3 5 2 5 4 4 2 2 1 1 4 3 1 4 4 2 3 3 3 4 6 4 3 1 1 3 7 7 6 5 4
10 9 9 7 6 6 5 3 4 4 4 6 3 3 2 3 2 4 3 3 3 3 1 1 2 3 6 6 7 7 6 4 2 3 5 7 6 4 3 3 4 4 5 5 4 5 4 4 4 5 5 2 1 1 1 2 3 4 5 4 5 3 3 4 2 2 2 3 3 2 1 3 3 2 1 2 0 1 3 4 4 5 4 6 5 4 3
7 7 7 6 6 5 5 5 3 3 3 4 4 2 0 2 2 1 2 2 3 2 2 2 1 5 8 7 6 4 2 1 2 2 3 3 3 2 2 3 4 5 4 3 3 4 4 6 6 6 7 4 0 1 1 1 1 3 4 4 2 4 3 2 2 1 2 3 1 2 4 6 3 2 4 4 4 1 4 2 2 4 5 6 4 2 1
5 6 5 5 4 4 4 5 3 3 4 4 4 3 2 0 1 1 1 2 1 1 1 2 5 9 6 5 5 3 1 1 1 0 0 2 2 3 3 4 5 5 4 4 4 4 2 3 4 3 3 4 4 3 2 2 2 2 3 5 2 5 3 1 2 4 3 3 4 2 3 2 3 4 2 1 5 6 5 4 4 3 4 5 4 2 2
5 6 6 6 5 5 4 4 2 4 2 1 1 2 3 1 1 0 3 2 1 3 3 9 8 5 5 4 4 3 1 1 1 1 1 1 2 2 3 5 6 6 6 6 5 4 3 3 3 3 3 4 4 3 3 3 2 2 3 3 4 3 1 1 3 3 2 2 5 7 5 4 3 4 5 4 1 2 6 6 5 4 3 1 2 4 1
8 6 4 6 5 4 4 5 5 3 3 3 6 2 1 2 2 1 1 3 0 5 10 8 7 6 4 4 3 3 2 3 3 2 3 4 4 3 3 5 5 6 6 6 5 5 6 4 7 5 1 3 4 6 6 3 3 1 1 2 5 3 2 1 3 1 3 2 5 7 4 4 3 4 5 4 1 2 3 3 2 2 3 1 2 1 2
7 5 6 5 5 6 4 1 4 5 3 3 3 2 3 0 1 1 1 2 2 3 7 8 7 7 4 5 4 4 3 3 2 2 1 1 1 2 5 5 4 6 6 6 5 5 9 7 5 3 2 3 3 4 4 1 2 2 1 3 4 5 3 1 1 3 3 4 8 6 3 2 1 2 4 4 1 2 1 2 3 2 1 0 1 1 1
6 5 5 4 5 5 2 7 4 2 2 2 4 4 5 4 2 2 2 2 0 1 1 2 2 4 7 7 3 4 5 5 5 5 4 2 1 2 3 3 3 4 4 3 3 5 3 5 7 2 4 4 4 4 3 5 2 2 2 3 4 5 3 2 2 0 1 5 6 5 5 2 1 3 2 1 1 2 2 1 2 1 1 2 0 1 1
5 3 4 4 2 5 2 5 4 4 2 3 3 2 3 2 2 3 2 1 2 1 2 2 2 2 1 5 7 8 8 8 5 5 4 3 3 3 4 5 6 5 4 2 3 3 4 2 4 5 6 6 5 4 5 7 4 3 3 3 3 4 4 2 2 1 2 1 3 5 4 2 0 1 2 1 1 3 5 4 1 2 3 4 5 3 2
3 3 5 1 3 4 2 2 2 2 1 4 2 4 4 2 2 2 3 3 2 1 2 2 1 2 2 4 5 5 5 5 8 7 5 4 4 4 6 9 10 11 4 3 3 3 3 1 3 4 3 5 5 2 4 6 5 4 3 3 3 4 4 2 1 2 1 4 6 5 2 5 1 1 1 1 3 2 5 2 2 4 3 3 3 2 1
4 6 6 2 5 2 1 2 2 4 0 1 3 3 2 5 5 2 2 2 2 1 2 2 2 3 3 4 5 5 4 4 3 7 8 7 5 5 4 4 4 6 7 3 1 1 2 2 2 2 2 4 4 3 5 3 3 2 4 4 3 2 4 4 2 2 1 8 5 4 4 5 4 3 3 4 2 2 3 4 4 3 3 2 2 2 2
6 2 3 3 3 3 1 3 3 1 2 2 3 1 3 2 2 4 3 2 3 3 2 4 1 2 4 5 6 6 6 6 4 4 5 5 6 4 3 3 3 5 7 6 6 5 5 6 5 2 3 4 6 6 4 5 3 4 4 4 2 1 4 5 2 2 2 2 1 5 5 5 6 5 5 4 2 3 4 3 3 2 1 1 1 1 2
4 3 2 2 2 3 3 0 1 3 1 1 1 3 1 2 3 3 3 4 3 4 3 4 4 5 5 5 4 5 6 5 5 6 5 5 5 5 5 3 4 5 5 1 1 2 4 4 4 4 5 4 3 2 5 4 4 4 2 4 1 2 5 4 3 2 2 2 2 2 5 8 6 5 5 3 3 3 2 2 3 2 2 1 2 1 1
1 1 2 2 1 1 3 2 2 1 2 3 1 3 1 2 3 4 3 4 4 3 4 5 5 5 5 5 5 5 4 4 4 3 4 5 6 7 8 7 2 5 6 2 3 3 4 3 6 6 8 9 5 1 1 4 5 3 1 4 4 4 3 4 4 3 2 2 1 1 2 1 3 7 7 4 4 3 3 1 2 3 2 2 0 1 2
6 4 2 4 5 4 3 5 2 3 5 6 4 4 3 2 2 4 4 4 5 3 4 5 5 4 4 4 5 4 3 4 2 5 4 2 2 3 6 2 6 5 4 2 1 3 1 5 6 9 6 7 5 1 3 3 4 2 0 2 3 3 4 6 6 4 3 3 2 2 2 2 2 1 4 6 6 5 5 5 3 3 4 2 1 2 3
3 3 3 1 5 6 2 6 5 4 4 4 5 4 3 4 3 2 3 5 4 3 4 5 5 4 4 5 4 6 6 2 6 5 3 1 1 1 3 4 4 4 6 2 2 4 2 6 9 8 8 6 6 3 3 4 3 3 1 6 3 2 5 6 6 7 4 2 3 3 2 2 0 0 1 1 2 4 6 7 4 4 4 5 3 3 2
5 3 3 2 0 1 2 1 3 2 2 4 5 3 2 6 5 3 3 4 5 4 4 4 4 4 4 4 4 3 3 4 4 4 2 2 1 4 1 1 3 4 4 3 2 2 4 3 6 7 7 7 6 3 3 3 3 3 3 1 1 1 2 3 3 3 6 7 4 4 3 2 2 1 2 1 1 2 1 3 2 3 5 7 6 5 3
3 3 3 3 0 5 2 6 6 4 4 3 3 3 1 1 2 3 4 4 5 4 4 4 4 4 4 3 4 4 4 4 2 1 2 3 1 2 2 1 3 5 5 4 4 4 8 8 8 7 7 5 5 4 4 4 4 3 3 2 2 2 3 3 2 4 4 6 8 6 4 2 1 2 3 1 1 1 0 0 1 2 2 1 4 4 5
2 0 3 2 4 7 5 1 1 5 3 4 1 4 2 2 2 2 4 4 4 5 4 3 2 3 3 4 4 4 2 2 3 3 1 1 1 3 5 5 4 5 3 3 4 1 7 8 8 7 7 5 4 5 5 5 4 4 3 3 3 3 3 3 4 3 3 4 5 6 6 5 1 3 1 2 2 0 1 0 0 1 1 3 0 5 3
6 4 5 5 6 3 3 2 3 4 5 3 3 5 5 2 2 4 3 3 2 2 3 3 4 2 1 3 2 1 1 3 3 3 3 2 3 2 3 4 6 7 6 2 5 2 7 9 9 8 7 5 4 5 4 5 4 4 3 5 4 3 4 5 4 5 5 3 4 6 6 6 6 2 3 3 3 1 2 2 2 2 2 3 1 3 3
2 4 1 4 2 1 1 2 1 3 2 3 5 2 0 3 2 2 4 5 5 4 3 2 3 4 3 2 2 2 4 4 6 4 2 4 4 3 2 2 2 5 5 4 3 3 2 5 3 5 4 4 4 4 4 4 3 4 6 4 5 6 4 6 5 4 4 4 6 6 6 5 5 4 2 2 2 2 1 1 3 3 2 2 2 2 3
2 2 0 1 2 1 1 0 3 1 4 3 2 4 4 5 6 3 0 4 2 4 3 3 3 4 4 4 4 4 4 4 3 3 4 4 3 5 1 4 4 2 2 3 3 2 3 2 7 7 6 4 4 4 4 6 4 3 5 6 4 1 4 3 3 4 4 6 5 3 3 3 3 3 3 2 2 4 4 3 2 2 2 2 2 2 0
Wind_Direction
333 347 348 318 87 57 53 44 41 37 23 29 41 40 32 13 222 202 178 151 115 100 90 80 64 63 67 57 52 40 34 32 25 24 34 35 32 32 34 34 36 34 33 30 27 23 19 15 17 17 14 10 12 6 356 358 30 19 91 149 167 143 188 151 139 130 132 111 100 76 83 129 133 132 135 138 126 137 128 128 146 136 132 133 148 167 129
297 23 3 306 101 46 58 50 54 59 19 37 37 47 49 26 356 88 115 95 80 69 78 69 68 65 65 62 54 45 36 32 25 26 29 27 28 29 31 31 31 33 32 30 28 27 23 20 19 18 16 11 4 7 353 348 4 21 85 97 66 148 149 145 120 122 140 126 116 91 69 119 133 131 132 126 117 112 109 115 124 111 112 121 163 144 80
262 163 207 310 13 106 76 52 49 55 66 60 49 42 19 354 83 81 95 92 89 72 62 67 61 56 58 58 50 39 33 27 26 30 28 24 25 26 27 28 28 29 29 28 28 27 25 23 21 21 22 9 4 11 5 1 359 15 61 5 112 92 115 100 112 123 139 148 128 128 124 62 144 137 135 119 117 125 128 137 118 106 72 51 46 52 68
230 230 288 40 153 98 64 47 33 31 34 46 53 47 19 6 344 117 139 102 84 86 83 72 59 53 45 43 36 36 33 26 26 29 25 21 21 23 22 23 25 26 26 27 27 27 28 29 28 26 23 18 22 5 6 9 11 6 45 47 70 53 71 114 123 102 87 109 108 120 147 196 159 141 112 92 90 84 90 80 79 78 75 74 72 73 70
280 99 289 316 275 222 81 31 19 23 41 42 77 59 35 13 355 16 33 80 77 85 81 74 56 50 48 44 34 24 26 29 30 28 24 21 22 22 20 22 24 26 25 23 20 21 21 21 32 33 27 24 22 10 17 21 27 25 36 43 43 49 58 99 115 71 69 82 91 95 72 65 67 80 81 78 71 65 64 63 71 75 75 72 65 63 63
183 277 138 109 147 187 51 25 15 19 26 38 64 50 31 17 28 68 67 65 58 60 63 66 61 56 48 45 41 34 27 24 29 31 28 26 26 26 26 24 24 23 24 21 17 16 19 29 38 38 37 29 18 17 30 37 37 24 34 41 41 40 42 40 69 94 93 93 89 83 74 74 77 78 76 72 71 68 65 65 70 74 71 69 64 59 55
295 85 76 39 229 88 192 68 34 6 357 66 83 60 39 24 27 62 66 68 75 82 88 89 84 77 69 54 46 37 32 34 37 33 30 29 27 28 25 26 26 25 23 23 21 19 17 18 25 38 36 33 23 25 24 39 39 40 32 39 34 34 40 34 37 55 69 76 79 74 77 84 79 77 77 64 68 63 63 62 70 75 79 80 78 77 64
71 204 154 226 78 133 141 95 34 9 39 21 108 72 40 24 13 45 79 77 84 100 107 108 109 100 87 67 47 38 35 33 32 36 30 28 30 32 29 29 27 23 18 23 28 25 21 20 22 30 36 32 38 38 39 38 39 44 44 43 36 30 35 34 38 42 56 67 70 66 68 66 78 78 75 63 59 76 77 73 74 84 82 78 76 74 72
253 47 69 75 131 112 45 43 17 20 17 7 4 63 48 24 15 24 83 92 100 103 115 124 133 131 96 63 46 34 35 34 34 35 36 29 27 23 21 24 28 22 19 21 29 37 35 29 26 26 22 26 37 41 42 37 37 40 43 46 41 35 33 32 36 33 45 56 61 63 61 69 71 73 83 85 65 59 74 72 72 73 80 78 73 75 68
42 119 111 135 184 87 49 26 19 37 56 28 343 257 103 21 25 24 59 85 99 100 110 134 163 211 302 44 38 30 33 31 34 36 38 36 33 28 25 22 28 28 23 22 24 32 42 39 32 25 20 17 36 43 41 39 39 37 38 36 39 44 40 32 39 43 40 52 60 59 65 63 60 58 61 70 88 88 89 89 82 77 85 81 76 75 82
119 139 139 123 105 78 11 355 345 20 47 17 132 239 79 17 4 33 41 71 80 98 72 39 342 258 108 72 59 34 35 34 30 33 28 29 31 31 32 28 30 30 30 29 25 26 31 41 35 28 22 22 28 38 38 40 42 42 37 30 30 35 36 43 45 44 45 50 52 57 63 60 56 56 53 54 53 63 63 65 64 68 73 82 81 72 72
114 139 93 83 55 73 358 344 338 356 100 155 227 211 81 353 340 354 69 84 91 53 34 30 39 24 104 116 100 72 59 54 44 39 33 30 27 27 25 24 29 34 34 36 30 26 26 30 33 33 28 30 31 33 36 38 43 43 38 32 26 27 34 37 42 57 56 57 56 54 56 57 56 60 61 56 50 61 73 80 84 83 78 74 73 65 57
72 80 95 111 110 73 356 342 335 3 355 272 307 44 1 337 318 48 70 94 63 55 55 46 74 44 75 103 96 71 61 53 47 42 42 41 37 33 27 24 19 36 36 41 39 33 28 24 23 29 32 33 33 30 31 37 38 31 29 32 30 32 35 37 39 42 46 58 72 72 67 64 62 58 54 62 62 69 74 74 76 74 80 84 90 94 86
102 101 90 91 97 23 343 335 22 0 298 28 63 30 297 278 81 71 75 72 73 78 77 81 81 83 81 81 77 72 61 55 44 40 38 37 37 32 29 29 29 34 36 36 36 34 30 28 24 25 31 37 33 31 31 33 30 25 23 22 23 22 31 42 43 44 45 43 48 64 76 78 73 67 66 70 70 78 82 91 96 100 105 116 110 115 119
92 110 107 116 69 24 1 334 47 13 45 60 39 327 354 57 68 69 64 69 77 89 96 96 97 92 82 76 67 59 56 56 54 48 44 37 30 26 24 34 35 36 38 34 35 33 29 30 25 21 29 36 32 30 33 22 16 20 26 21 16 15 16 23 36 50 50 48 50 51 55 65 81 89 97 97 108 126 115 113 112 128 141 144 143 142 157
76 59 56 54 17 6 13 26 61 41 56 60 51 5 55 48 64 79 83 80 87 94 97 96 93 90 86 77 76 73 64 57 57 52 50 49 41 44 45 48 47 45 47 44 42 33 28 26 29 27 29 36 31 32 27 12 15 16 22 18 17 21 12 6 37 35 40 44 42 48 65 71 74 91 90 98 76 139 175 155 159 165 163 167 165 170 160
41 83 96 93 77 57 47 58 75 71 64 66 68 62 50 48 39 61 88 94 99 101 103 100 98 93 88 91 85 79 73 73 65 59 50 49 46 47 47 51 55 52 51 52 48 43 33 28 25 29 31 35 31 30 18 14 15 21 20 15 22 27 20 7 8 59 46 39 44 42 31 32 52 41 47 85 132 206 43 39 58 92 91 95 87 95 107
89 85 89 92 82 72 68 64 67 78 79 68 68 65 67 50 52 50 76 88 98 101 104 103 96 98 102 97 93 91 91 80 67 64 64 60 57 54 54 59 54 54 56 56 53 48 41 40 29 13 35 42 38 20 5 11 12 10 20 27 21 22 27 22 13 21 33 32 25 27 38 40 36 37 38 35 27 19 24 43 56 49 52 67 84 73 71
114 79 107 95 99 96 85 77 72 72 69 73 76 77 75 73 70 78 79 85 87 93 101 103 111 116 118 115 112 106 95 86 78 67 64 61 53 51 55 50 50 56 55 52 53 55 58 37 30 9 347 45 87 44 8 357 352 355 354 2 12 24 23 26 44 37 38 36 37 30 23 23 31 34 41 43 36 28 27 12 16 26 34 29 30 30 34
89 110 99 86 78 71 70 69 74 74 74 79 80 86 96 98 88 85 93 97 96 94 88 85 89 95 109 113 110 106 101 98 97 97 83 65 50 43 43 49 52 55 59 51 39 47 47 29 12 4 355 33 129 151 236 273 305 327 352 5 10 7 13 13 21 58 71 73 62 54 42 39 32 31 48 58 52 44 24 18 16 26 36 38 30 19 16
104 109 107 104 98 90 88 90 85 87 96 98 98 98 102 103 103 99 89 81 82 79 81 82 77 64 44 68 107 108 103 102 96 91 93 87 81 59 40 38 47 57 48 51 55 47 27 10 335 358 11 8 67 181 205 210 277 347 345 25 32 17 360 354 358 9 75 102 94 75 63 51 41 30 8 58 75 69 45 29 39 24 41 49 27 12 36
112 114 121 137 108 95 91 90 99 103 102 107 113 117 111 111 108 105 99 92 80 72 70 67 65 65 61 50 41 42 51 81 100 106 100 104 112 106 110 58 33 34 45 91 89 71 75 69 33 21 13 358 348 54 76 56 24 14 346 97 63 40 16 7 341 345 24 92 132 133 114 100 78 54 38 37 47 101 99 69 71 64 72 74 28 356 54
105 99 91 88 91 93 89 104 116 110 103 98 93 93 96 99 104 109 110 108 102 92 81 72 66 65 64 55 49 46 38 34 36 42 34 144 113 124 140 148 103 74 29 3 7 101 153 120 93 83 46 359 8 10 9 50 46 25 20 12 80 109 28 354 342 345 22 353 23 115 146 144 126 112 94 49 39 40 59 78 81 98 98 91 68 51 50
97 99 104 100 102 103 108 99 88 83 86 94 101 99 96 94 92 92 89 91 96 97 94 86 80 77 71 59 50 43 33 25 15 5 5 2 152 158 167 131 138 139 145 128 30 357 349 2 165 181 182 126 69 36 353 12 58 60 41 29 15 355 9 1 11 12 15 354 353 31 29 126 141 134 120 113 76 54 62 72 75 72 82 87 90 90 78
99 97 100 104 105 105 103 103 98 95 87 82 85 94 102 104 99 103 107 105 102 100 99 92 82 82 83 87 78 56 41 19 34 8 352 359 349 343 156 143 169 151 111 123 137 23 23 6 14 355 16 29 12 346 64 28 345 96 71 46 19 12 344 356 321 88 18 355 2 12 13 13 59 136 145 135 124 121 58 63 84 88 81 84 87 104 108
101 101 99 99 100 98 99 98 94 100 107 102 96 91 94 103 116 107 103 104 106 105 110 117 113 124 128 112 110 101 95 63 48 350 0 357 358 359 7 16 34 71 143 151 92 73 112 250 324 33 54 30 357 339 54 23 343 331 122 78 44 39 23 340 308 356 34 18 336 89 120 74 13 40 39 96 141 137 137 143 129 90 76 32 71 103 95
102 109 114 108 103 101 99 96 103 103 105 109 113 114 110 119 114 106 105 104 107 89 93 90 99 92 105 117 126 139 113 139 137 135 350 348 343 360 2 9 353 354 339 26 66 138 215 291 294 63 75 29 15 24 55 11 337 306 167 142 106 70 323 327 1 19 23 21 352 2 356 355 28 31 87 121 81 146 166 159 142 134 141 158 201 232 203
98 99 97 101 97 100 104 101 102 102 104 117 124 135 146 155 123 111 117 114 103 104 112 130 131 166 131 157 172 184 185 150 59 42 32 352 26 23 5 7 348 333 352 353 341 350 323 343 355 359 32 27 5 38 16 6 319 335 3 105 143 122 358 345 22 7 11 62 356 339 359 338 342 346 358 334 12 140 41 45 112 135 130 140 147 218 212
93 89 89 96 103 104 106 106 103 96 95 85 87 97 104 105 86 105 119 132 135 144 152 99 68 43 31 34 53 93 53 54 83 97 99 53 39 34 34 323 304 326 332 322 310 337 340 330 341 316 21 29 350 18 22 359 314 354 25 324 54 56 37 10 5 350 339 70 12 355 321 321 315 294 63 38 340 39 41 30 20 120 141 128 123 116 245
113 103 97 105 113 120 121 113 102 107 107 97 92 95 114 118 127 128 119 110 123 123 98 110 76 54 343 38 72 51 30 34 32 31 12 40 82 56 41 15 350 322 325 336 349 351 345 323 315 320 342 8 327 335 54 331 305 295 291 72 82 64 46 338 332 341 289 77 5 313 289 250 322 360 13 17 38 74 75 44 311 320 87 72 59 55 48
101 103 104 110 117 123 116 115 130 112 98 100 91 99 89 98 101 103 96 106 102 75 350 52 78 330 32 49 65 66 50 39 24 30 351 61 47 36 24 6 349 344 348 332 316 295 291 306 311 299 304 269 324 334 344 337 321 307 352 103 96 110 126 212 142 309 322 53 11 299 326 39 85 74 355 352 27 21 93 98 28 44 69 71 60 39 44
127 135 139 134 129 124 132 141 115 108 109 73 80 70 85 102 104 100 98 104 105 130 160 323 13 57 69 72 74 68 63 57 3 19 9 35 46 42 355 332 322 304 284 287 289 293 297 286 269 249 235 244 240 94 1 332 320 313 320 133 142 142 190 250 226 220 3 334 271 299 327 48 42 22 334 355 117 129 63 32 31 46 58 68 62 60 33
121 131 130 125 128 128 128 118 118 94 81 98 89 83 159 59 111 120 115 100 111 113 153 167 319 79 93 84 85 85 77 7 345 24 27 35 3 343 317 306 306 302 294 276 282 286 293 298 304 327 330 330 118 166 175 251 271 299 306 309 136 148 179 195 13 27 178 247 357 61 20 29 7 25 35 336 333 42 108 105 67 72 69 75 83 76 39
108 80 81 86 75 85 104 108 98 123 130 147 176 181 135 337 322 112 121 101 65 104 184 164 101 101 103 104 101 97 80 328 310 99 126 297 298 312 292 269 280 289 288 284 272 263 263 275 295 302 304 297 303 298 222 230 234 263 313 315 343 148 197 158 175 228 236 169 136 100 92 100 19 21 359 311 36 2 44 53 63 81 114 119 116 114 48
52 61 83 97 114 91 65 90 119 114 107 120 110 3 7 114 139 117 85 298 182 260 128 108 105 110 111 109 105 121 117 286 306 210 261 250 259 257 281 293 306 324 326 320 310 284 259 237 247 257 275 297 286 269 228 203 208 259 284 294 312 318 287 160 200 216 336 9 86 69 51 46 46 42 334 336 74 53 40 32 39 39 62 76 122 125 120
140 143 138 103 99 113 116 102 94 69 96 45 37 51 203 59 31 91 179 242 288 96 110 119 126 126 118 121 139 163 198 220 241 250 267 265 258 244 262 283 302 316 320 314 305 268 240 213 121 113 160 288 308 311 314 297 207 214 259 297 297 278 251 145 278 262 165 77 71 89 70 54 44 33 326 301 340 47 96 110 103 86 73 358 323 301 161
111 117 115 100 70 55 88 140 90 84 56 96 125 124 68 63 280 262 234 235 217 116 141 145 159 152 163 181 185 182 193 206 230 239 256 229 227 240 256 275 299 302 303 294 292 351 60 77 100 103 290 270 259 271 261 60 269 185 132 308 291 295 301 294 260 22 340 91 99 101 118 126 186 169 251 271 111 84 74 107 108 119 145 194 202 194 60
81 107 101 101 138 149 108 63 23 75 80 84 98 17 356 5 339 278 303 340 23 215 249 213 197 189 174 168 164 175 207 217 227 241 242 249 251 277 280 269 264 271 278 286 15 346 63 120 150 203 288 287 277 260 208 180 167 234 219 231 266 279 286 303 342 323 277 105 116 116 117 123 272 273 263 283 126 134 127 83 82 120 172 195 257 24 117
133 88 86 98 290 54 1 126 173 106 98 327 31 139 176 190 200 255 264 283 285 251 229 275 254 226 217 175 193 199 202 208 213 212 217 211 222 237 254 253 260 264 269 334 338 328 116 110 357 320 310 301 281 265 141 151 162 225 226 242 275 290 293 298 303 281 75 45 115 116 113 116 156 301 297 289 68 86 70 64 47 260 226 196 188 181 201
90 99 67 156 107 103 241 75 64 72 58 83 354 354 69 298 276 314 322 319 309 205 261 252 301 308 295 268 256 269 268 227 193 183 199 200 198 228 261 264 248 236 213 81 323 68 76 281 281 306 307 287 288 300 132 157 158 201 231 225 223 260 269 273 239 294 141 108 123 150 133 117 140 292 331 290 242 163 133 147 192 230 233 215 166 143 178
122 136 157 188 90 172 229 70 44 89 59 311 61 48 15 329 338 297 245 257 285 250 264 262 261 274 283 287 301 302 265 257 203 182 193 187 196 215 243 271 354 89 115 125 38 91 181 210 261 305 329 326 333 67 111 156 185 224 231 226 224 251 276 265 264 255 211 137 166 156 146 141 148 170 222 229 209 169 149 181 203 216 216 197 121 166 133
131 137 146 176 172 136 78 160 187 294 102 84 131 286 329 327 309 303 310 242 239 234 265 270 216 253 301 308 302 297 295 291 271 257 245 239 238 259 291 305 100 108 121 144 191 210 221 201 193 214 74 41 27 23 113 170 232 240 239 232 196 242 271 274 255 236 265 270 209 148 147 157 166 174 189 217 205 200 193 180 176 199 274 325 280 119 143
111 165 161 195 151 144 181 216 109 252 178 276 103 98 328 322 309 294 287 300 309 305 297 308 147 183 235 254 256 276 287 297 298 298 293 288 279 274 268 297 92 122 179 202 14 318 323 314 106 115 93 81 116 53 317 289 244 248 279 327 295 250 273 275 275 267 276 250 234 257 163 173 170 163 178 192 194 188 205 189 156 160 163 203 284 309 98
152 237 160 157 171 85 358 338 310 285 257 274 1 92 106 252 258 272 279 286 277 268 257 261 282 288 294 295 295 295 298 305 306 327 336 0 340 2 355 320 48 142 207 261 359 357 316 50 97 119 120 126 136 147 244 263 268 262 50 65 323 266 264 285 285 276 263 263 261 252 281 244 172 169 174 180 187 161 150 211 185 146 157 162 224 286 287
199 183 99 32 32 67 207 230 264 357 14 20 347 274 265 290 289 274 285 279 283 303 296 287 285 294 281 271 276 270 260 266 328 46 46 15 332 357 331 311 159 162 165 194 68 310 327 114 137 136 144 140 150 152 260 261 270 278 95 62 57 347 327 307 304 281 289 298 274 253 247 229 239 82 159 179 172 161 164 178 204 170 147 128 183 255 260
99 139 145 207 226 237 22 20 7 357 325 310 295 297 248 218 209 291 295 289 291 284 275 279 290 283 277 282 277 278 278 282 116 137 159 194 171 227 309 322 44 86 156 199 309 303 62 126 140 145 143 160 157 190 245 268 286 303 267 114 132 256 290 316 335 334 306 271 291 299 276 287 209 161 309 61 196 175 168 175 185 174 153 161 180 227 237
176 176 174 173 35 343 80 77 336 331 270 241 237 252 19 15 3 326 299 287 289 293 294 299 290 291 302 303 297 289 314 317 39 46 8 333 184 170 172 74 106 148 173 240 306 37 106 144 151 155 161 176 186 222 247 259 256 249 265 282 114 253 294 300 297 310 329 324 318 311 319 336 322 256 223 152 354 354 97 160 215 208 175 165 176 173 185
154 208 220 151 123 52 315 227 224 229 224 243 338 5 17 352 289 295 296 300 301 298 298 292 300 299 280 267 274 288 296 336 318 178 264 268 65 78 81 264 192 200 212 244 263 192 152 160 164 169 174 177 207 254 262 262 247 240 242 204 205 233 253 272 299 312 321 322 318 302 290 268 255 317 343 324 182 171 259 46 294 322 344 205 168 156 172
233 72 61 124 193 208 223 132 163 248 251 67 344 291 352 38 23 320 293 292 301 305 285 269 266 280 295 305 313 303 313 216 259 305 254 342 263 156 175 224 181 161 226 266 282 317 165 162 162 167 172 186 224 251 263 260 252 233 223 225 204 196 224 237 252 239 252 279 302 315 323 313 278 152 198 319 342 43 108 190 272 308 310 316 353 114 132
183 184 212 212 227 224 41 4 328 6 3 326 349 31 36 26 282 287 280 280 304 291 305 320 313 327 328 312 285 316 70 310 314 322 347 329 298 296 289 92 146 198 204 262 309 293 159 168 169 172 174 204 226 252 262 268 276 269 246 187 185 193 200 221 230 239 237 249 286 301 307 306 303 259 185 186 179 181 203 198 185 141 65 323 274 146 161
181 219 216 73 342 17 100 206 9 21 316 331 291 244 255 287 320 343 332 11 330 309 300 323 318 318 344 6 7 328 329 22 7 341 331 332 339 329 291 290 167 184 212 231 267 288 151 180 183 166 193 222 236 236 247 266 272 272 285 269 185 186 207 209 227 232 234 226 228 221 222 233 248 266 228 193 163 160 175 174 165 159 169 236 248 220 196
265 276 150 252 265 303 287 80 83 258 262 253 296 42 17 7 328 321 351 122 278 304 322 332 312 359 354 7 8 7 12 3 321 318 353 329 343 337 33 166 248 256 242 269 280 297 302 146 150 174 197 206 214 223 232 235 241 277 293 310 324 216 200 204 198 215 222 221 222 241 248 235 229 243 259 231 191 176 172 168 167 184 184 202 235 252 216